TimeEDT,TemperatureF,Dew PointF,Humidity,Sea Level PressureIn,VisibilityMPH,Wind Direction,Wind SpeedMPH,Gust SpeedMPH,PrecipitationIn,Events,Conditions,WindDirDegrees,DateUTC
12:53 AM,75.0,73.0,94,29.99,10.0,Calm,Calm,-,N/A,,Clear,0,2013-10-06 04:53:00
1:53 AM,73.0,72.0,96,29.98,10.0,Calm,Calm,-,N/A,,Clear,0,2013-10-06 05:53:00
2:53 AM,72.0,71.1,97,29.97,10.0,Calm,Calm,-,N/A,,Scattered Clouds,0,2013-10-06 06:53:00
3:04 AM,73.4,71.6,94,29.97,10.0,Calm,Calm,-,N/A,,Mostly Cloudy,0,2013-10-06 07:04:00
3:26 AM,73.4,71.6,94,29.96,10.0,Calm,Calm,-,N/A,,Scattered Clouds,0,2013-10-06 07:26:00
3:53 AM,73.9,73.0,97,29.96,10.0,Calm,Calm,-,N/A,,Partly Cloudy,0,2013-10-06 07:53:00
4:53 AM,73.0,73.0,100,29.94,10.0,Calm,Calm,-,N/A,,Clear,0,2013-10-06 08:53:00
5:53 AM,72.0,72.0,100,29.95,10.0,Calm,Calm,-,N/A,,Clear,0,2013-10-06 09:53:00
6:53 AM,72.0,72.0,100,29.96,5.0,Calm,Calm,-,N/A,,Clear,0,2013-10-06 10:53:00
7:53 AM,73.0,72.0,96,29.97,10.0,NE,3.5,-,N/A,,Clear,40,2013-10-06 11:53:00
8:53 AM,77.0,73.9,90,29.97,10.0,Calm,Calm,-,N/A,,Clear,0,2013-10-06 12:53:00
9:53 AM,81.0,73.0,77,29.98,10.0,Calm,Calm,-,N/A,,Clear,0,2013-10-06 13:53:00
10:53 AM,84.0,73.0,69,29.99,10.0,SSE,6.9,-,N/A,,Clear,150,2013-10-06 14:53:00
11:53 AM,84.9,70.0,61,29.98,10.0,South,8.1,-,N/A,,Mostly Cloudy,170,2013-10-06 15:53:00
12:53 PM,86.0,69.1,57,29.96,10.0,Calm,Calm,-,N/A,,Partly Cloudy,0,2013-10-06 16:53:00
1:53 PM,89.1,69.1,52,29.93,10.0,SE,8.1,-,N/A,,Clear,140,2013-10-06 17:53:00
2:53 PM,90.0,69.1,50,29.90,10.0,SE,5.8,-,N/A,,Partly Cloudy,130,2013-10-06 18:53:00
3:53 PM,80.1,75.0,85,29.90,6.0,SE,12.7,-,0.02,Rain,Light Rain,130,2013-10-06 19:53:00
4:12 PM,80.6,71.6,74,29.90,6.0,ESE,10.4,-,0.00,,Haze,110,2013-10-06 20:12:00
4:53 PM,84.9,71.1,63,29.88,10.0,ENE,5.8,-,0.00,,Clear,70,2013-10-06 20:53:00
5:53 PM,82.0,73.9,76,29.89,10.0,ENE,8.1,-,N/A,,Partly Cloudy,60,2013-10-06 21:53:00
6:11 PM,80.6,75.2,84,29.89,10.0,ENE,6.9,-,N/A,Thunderstorm,Thunderstorm,60,2013-10-06 22:11:00
6:40 PM,75.2,73.4,94,29.90,6.0,SSW,11.5,-,0.00,Rain-Thunderstorm,Light Thunderstorms and Rain,200,2013-10-06 22:40:00
6:49 PM,75.2,73.4,94,29.91,1.0,South,13.8,-,0.09,Rain-Thunderstorm,Heavy Thunderstorms and Rain,190,2013-10-06 22:49:00
6:53 PM,75.0,72.0,90,29.92,1.0,South,15.0,-,0.17,Rain-Thunderstorm,Heavy Thunderstorms and Rain,180,2013-10-06 22:53:00
6:55 PM,75.2,73.4,94,29.92,0.8,South,12.7,-,0.07,Rain-Thunderstorm,Heavy Thunderstorms and Rain,170,2013-10-06 22:55:00
6:58 PM,75.2,73.4,94,29.93,1.0,SSE,11.5,-,0.10,Rain-Thunderstorm,Heavy Thunderstorms and Rain,160,2013-10-06 22:58:00
7:12 PM,73.4,71.6,94,29.93,1.5,ESE,10.4,-,0.30,Rain-Thunderstorm,Heavy Thunderstorms and Rain,110,2013-10-06 23:12:00
7:32 PM,73.4,71.6,94,29.92,7.0,East,10.4,-,0.34,,Overcast,90,2013-10-06 23:32:00
7:53 PM,73.9,72.0,93,29.91,7.0,ENE,4.6,-,0.35,,Overcast,60,2013-10-06 23:53:00
8:53 PM,75.9,73.9,94,29.91,10.0,ESE,3.5,-,0.01,,Scattered Clouds,120,2013-10-07 00:53:00
9:53 PM,73.9,73.0,97,29.92,10.0,ESE,3.5,-,N/A,,Partly Cloudy,120,2013-10-07 01:53:00
10:53 PM,73.9,73.9,100,29.91,10.0,Calm,Calm,-,N/A,,Partly Cloudy,0,2013-10-07 02:53:00
11:53 PM,75.0,73.9,96,29.90,10.0,Calm,Calm,-,N/A,,Clear,0,2013-10-07 03:53:00